Weather History for Williamsburg, VA

Change the Weather History Date:

Thursday, November 8, 2012

  Actual Average Record
Temperature  
Mean Temperature 50 °F -  
Max Temperature 60 °F 62 °F 78 °F (1987)
Min Temperature 39 °F 40 °F 20 °F (1952)
Degree Days  
Heating Degree Days 16    
Moisture  
Dew Point 26 °F    
Average Humidity 49    
Maximum Humidity 87    
Minimum Humidity 19    
Precipitation  
Precipitation 0.00 in - - ()
Sea Level Pressure  
Sea Level Pressure 29.96 in    
Wind  
Wind Speed 8 mph (NW)    
Max Wind Speed 21 mph    
Max Gust Speed 28 mph    
Visibility 10 miles    
Events      
Averages and records for this station are not official NWS values.
T = Trace of Precipitation, MM = Missing Value Source: NWS Daily Summary

Daily Weather History Graph

Daily Weather History Graph

Search for Another Location

Airport:

Trip Planner

Search our weather history database for the weather conditions in past years. The results will help you decide how hot, cold, wet, or windy it might be!

Date:

Astronomy

Nov. 08, 2012 Rise Set
Actual Time 6:39 AM EST 5:01 PM EST
Civil Twilight 6:11 AM EST 5:29 PM EST
Nautical Twilight 5:40 AM EST 6:00 PM EST
Astronomical Twilight 5:09 AM EST 6:30 PM EST
Moon 12:39 AM EST (11/8) 1:34 PM EST (11/8)
Length of Visible Light 11h 17m
Length of Day
10h 22m
Waning Crescent, 33% of the Moon is Illuminated
Nov 8
Waning Crescent
Nov 13
New
Nov 20
First Quarter
Nov 28
Full
Dec 6
Last Quarter

Hourly Weather History & Observations

Time (EST) Temp. Windchill Dew Point Humidity Pressure Visibility Wind Dir Wind Speed Gust Speed Precip Events Conditions
12:15 AM 41.0 °F 39.0 °F 35.6 °F 81% 29.91 in 10.0 mi NNW 3.5 mph - N/A   Overcast
12:35 AM 41.0 °F 38.0 °F 35.6 °F 81% 29.91 in 10.0 mi NNW 4.6 mph - N/A   Overcast
12:55 AM 41.0 °F 39.0 °F 37.4 °F 87% 29.91 in 10.0 mi NNW 3.5 mph - N/A   Overcast
1:15 AM 39.2 °F 31.2 °F 35.6 °F 87% 29.90 in 10.0 mi NNW 13.8 mph 18.4 mph N/A   Overcast
1:35 AM 39.2 °F 35.0 °F 35.6 °F 87% 29.91 in 10.0 mi NNW 5.8 mph - N/A   Overcast
1:55 AM 39.2 °F 35.0 °F 35.6 °F 87% 29.91 in 10.0 mi NNW 5.8 mph - N/A   Overcast
2:15 AM 39.2 °F 32.5 °F 35.6 °F 87% 29.91 in 10.0 mi NW 10.4 mph - N/A   Overcast
2:35 AM 39.2 °F 34.2 °F 35.6 °F 87% 29.91 in 10.0 mi NNW 6.9 mph - N/A   Overcast
2:55 AM 39.2 °F 34.2 °F 35.6 °F 87% 29.91 in 10.0 mi NNW 6.9 mph - N/A   Overcast
3:15 AM 39.2 °F 32.5 °F 35.6 °F 87% 29.91 in 10.0 mi NNW 10.4 mph 16.1 mph N/A   Overcast
3:35 AM 39.2 °F 33.6 °F 33.8 °F 81% 29.91 in 10.0 mi NNW 8.1 mph 16.1 mph N/A   Overcast
3:55 AM 39.2 °F 33.6 °F 33.8 °F 81% 29.91 in 10.0 mi NNW 8.1 mph - N/A   Overcast
4:15 AM 39.2 °F 35.0 °F 33.8 °F 81% 29.92 in 10.0 mi NNW 5.8 mph - N/A   Overcast
4:35 AM 39.2 °F 34.2 °F 33.8 °F 81% 29.93 in 10.0 mi NNW 6.9 mph - N/A   Overcast
4:55 AM 39.2 °F 35.0 °F 33.8 °F 81% 29.93 in 10.0 mi NNW 5.8 mph - N/A   Overcast
5:15 AM 39.2 °F 35.9 °F 33.8 °F 81% 29.93 in 10.0 mi NW 4.6 mph - N/A   Overcast
5:35 AM 41.0 °F 39.0 °F 33.8 °F 76% 29.93 in 10.0 mi NW 3.5 mph - N/A   Overcast
5:55 AM 41.0 °F 39.0 °F 33.8 °F 76% 29.93 in 10.0 mi WNW 3.5 mph - N/A   Overcast
6:15 AM 41.0 °F 38.0 °F 32.0 °F 70% 29.94 in 10.0 mi WNW 4.6 mph - N/A   Overcast
6:35 AM 41.0 °F 38.0 °F 32.0 °F 70% 29.94 in 10.0 mi WNW 4.6 mph - N/A   Overcast
6:55 AM 41.0 °F 39.0 °F 32.0 °F 70% 29.95 in 10.0 mi NW 3.5 mph - N/A   Overcast
7:15 AM 41.0 °F 38.0 °F 32.0 °F 70% 29.96 in 10.0 mi NW 4.6 mph - N/A   Overcast
7:55 AM 42.8 °F 40.1 °F 30.2 °F 61% 29.97 in 10.0 mi WNW 4.6 mph - N/A   Overcast
8:15 AM 42.8 °F 39.3 °F 30.2 °F 61% 29.98 in 10.0 mi NW 5.8 mph - N/A   Scattered Clouds
8:35 AM 44.6 °F 40.2 °F 28.4 °F 53% 29.98 in 10.0 mi NW 8.1 mph - N/A   Mostly Cloudy
8:55 AM 44.6 °F 38.8 °F 28.4 °F 53% 29.97 in 10.0 mi NW 11.5 mph 16.1 mph N/A   Overcast
9:15 AM 46.4 °F 41.9 °F 28.4 °F 50% 29.97 in 10.0 mi NNW 9.2 mph - N/A   Overcast
9:35 AM 46.4 °F 40.7 °F 26.6 °F 46% 29.98 in 10.0 mi NW 12.7 mph 18.4 mph N/A   Mostly Cloudy
9:55 AM 50.0 °F - 24.8 °F 37% 29.98 in 10.0 mi NNW 10.4 mph 18.4 mph N/A   Clear
10:15 AM 53.6 °F - 24.8 °F 33% 29.97 in 10.0 mi NW 15.0 mph 19.6 mph N/A   Clear
10:35 AM 53.6 °F - 24.8 °F 33% 29.97 in 10.0 mi NNW 13.8 mph 23.0 mph N/A   Clear
10:55 AM 55.4 °F - 23.0 °F 29% 29.96 in 10.0 mi NW 12.7 mph - N/A   Clear
11:15 AM 55.4 °F - 23.0 °F 29% 29.96 in 10.0 mi NNW 15.0 mph 20.7 mph N/A   Clear
11:35 AM 57.2 °F - 23.0 °F 27% 29.95 in 10.0 mi WNW 11.5 mph 19.6 mph N/A   Clear
11:55 AM 57.2 °F - 23.0 °F 27% 29.94 in 10.0 mi WNW 8.1 mph - N/A   Clear
12:15 PM 57.2 °F - 21.2 °F 25% 29.94 in 10.0 mi NW 11.5 mph 21.9 mph N/A   Clear
12:35 PM 57.2 °F - 19.4 °F 23% 29.94 in 10.0 mi NNW 12.7 mph 20.7 mph N/A   Clear
12:55 PM 59.0 °F - 19.4 °F 22% 29.93 in 10.0 mi NW 11.5 mph 19.6 mph N/A   Clear
1:15 PM 59.0 °F - 17.6 °F 20% 29.93 in 10.0 mi NW 20.7 mph 24.2 mph N/A   Clear
1:35 PM 60.8 °F - 17.6 °F 19% 29.93 in 10.0 mi NW 16.1 mph 21.9 mph N/A   Clear
1:55 PM 59.0 °F - 17.6 °F 20% 29.93 in 10.0 mi NW 15.0 mph 27.6 mph N/A   Clear
2:15 PM 60.8 °F - 19.4 °F 20% 29.93 in 10.0 mi WNW 9.2 mph - N/A   Clear
2:35 PM 60.8 °F - 17.6 °F 19% 29.92 in 10.0 mi NW 15.0 mph 21.9 mph N/A   Clear
2:55 PM 60.8 °F - 17.6 °F 19% 29.92 in 10.0 mi NNW 15.0 mph 21.9 mph N/A   Clear
3:15 PM 60.8 °F - 17.6 °F 19% 29.92 in 10.0 mi NW 12.7 mph 24.2 mph N/A   Clear
3:35 PM 60.8 °F - 17.6 °F 19% 29.93 in 10.0 mi NNW 12.7 mph 23.0 mph N/A   Clear
3:55 PM 60.8 °F - 17.6 °F 19% 29.93 in 10.0 mi NNW 13.8 mph 18.4 mph N/A   Clear
4:15 PM 59.0 °F - 17.6 °F 20% 29.93 in 10.0 mi NW 9.2 mph 19.6 mph N/A   Clear
4:35 PM 57.2 °F - 17.6 °F 21% 29.93 in 10.0 mi NW 8.1 mph - N/A   Clear
4:55 PM 53.6 °F - 21.2 °F 28% 29.94 in 10.0 mi NW 5.8 mph - N/A   Clear
5:15 PM 51.8 °F - 21.2 °F 30% 29.95 in 10.0 mi NNW 8.1 mph - N/A   Clear
5:35 PM 51.8 °F - 19.4 °F 28% 29.96 in 10.0 mi NNW 8.1 mph - N/A   Clear
5:55 PM 48.2 °F - 21.2 °F 34% 29.97 in 10.0 mi NW 6.9 mph - N/A   Clear
6:15 PM 48.2 °F - 19.4 °F 32% 29.98 in 10.0 mi NW 9.2 mph - N/A   Clear
6:35 PM 48.2 °F - 19.4 °F 32% 29.99 in 10.0 mi NNW 6.9 mph - N/A   Clear
6:55 PM 46.4 °F 42.4 °F 21.2 °F 37% 30.00 in 10.0 mi NNW 8.1 mph - N/A   Clear
7:15 PM 46.4 °F 42.4 °F 19.4 °F 34% 30.00 in 10.0 mi NNW 8.1 mph - N/A   Clear
7:35 PM 48.2 °F - 19.4 °F 32% 30.01 in 10.0 mi NNW 9.2 mph - N/A   Clear
7:55 PM 46.4 °F 42.9 °F 19.4 °F 34% 30.02 in 10.0 mi NNW 6.9 mph - N/A   Clear
8:15 PM 46.4 °F 42.9 °F 19.4 °F 34% 30.03 in 10.0 mi NNW 6.9 mph - N/A   Clear
8:35 PM 48.2 °F - 19.4 °F 32% 30.03 in 10.0 mi NNW 12.7 mph 17.3 mph N/A   Clear
8:55 PM 48.2 °F - 21.2 °F 34% 30.04 in 10.0 mi NNW 12.7 mph 17.3 mph N/A   Clear
9:15 PM 48.2 °F - 21.2 °F 34% 30.04 in 10.0 mi NNW 8.1 mph - N/A   Clear
9:35 PM 46.4 °F 43.5 °F 21.2 °F 37% 30.05 in 10.0 mi NNW 5.8 mph - N/A   Clear
9:55 PM 44.6 °F 42.2 °F 23.0 °F 43% 30.05 in 10.0 mi NNW 4.6 mph - N/A   Clear
10:15 PM 44.6 °F 40.7 °F 24.8 °F 46% 30.05 in 10.0 mi NW 6.9 mph - N/A   Clear
10:35 PM 42.8 °F 40.1 °F 26.6 °F 53% 30.06 in 10.0 mi NW 4.6 mph - N/A   Clear
10:55 PM 41.0 °F 37.1 °F 26.6 °F 57% 30.06 in 10.0 mi NW 5.8 mph - N/A   Clear
11:15 PM 42.8 °F 38.6 °F 26.6 °F 53% 30.07 in 10.0 mi NW 6.9 mph - N/A   Clear
11:35 PM 42.8 °F 39.3 °F 26.6 °F 53% 30.07 in 10.0 mi NW 5.8 mph - N/A   Clear
11:55 PM 41.0 °F 36.4 °F 26.6 °F 57% 30.07 in 10.0 mi NW 6.9 mph - N/A   Clear